Location: Unspecified
(29.9680°N, 0.0000°E)
Time: 05:09:41
(UTC+00:00)

Explorer 7 - Pass Details

Date: 27 June 2019
Orbit: 485 x 680 km, 50.3° (Epoch: 16 August)

Event Time Altitude Azimuth Distance (km) Brightness Sun altitude
Rises 07:22:39 0° 273° (W) 2,666 9.8 28.0°
Reaches altitude 10° 07:25:46 10° 300° (WNW) 1,821 9.2 28.6°
Maximum altitude 07:28:01 14° 333° (NNW) 1,603 9.2 29.1°
Drops below altitude 10° 07:30:21 10° 6° (N) 1,891 9.9 29.6°
Sets 07:33:41 0° 31° (NNE) 2,844 11.0 30.3°
